Reid Restricted Landing Area

Jump to: basic info | weather | runways | comments

Related pages: nearby airports | nearby navaids | notams | map

Basic information (top)

Codes: 6IL6
Location: lon 42.118401, lat -88.407898, elev 920 ft / 280 m msl
Status: small_airport

Weather (top)

Current conditions for Dupage Airport 15nm (27km) SSE (rec'd 2015/04/21 12:52Z):

KDPA 211252Z 26014G22KT 10SM FEW055 06/M01 A2961 RMK AO2 SLP032 T00561011

Airport forecast for Dupage Airport 15nm (27km) SSE (rec'd 2015/04/21 12:39Z):

TAF KDPA 211137Z 2112/2212 25014G22KT P6SM SCT050 
     FM211500 26020G32KT P6SM BKN050 
     FM211800 27024G37KT P6SM BKN060 
     FM212300 27015G25KT P6SM BKN070 
     FM220130 28012KT P6SM FEW070

Runways (top)

E/W: 3,000 x 105 ft (914 x 32 m) — grass — not lighted

N/S: 2,100 x 105 ft (640 x 32 m) — grass — not lighted

Latest comments (top)

No comments yet for Reid Restricted Landing Area

More... (top)

See also NOTAMs and nearby airports and navaids, or visit the Reid Restricted Landing Area page at the main OurAirports website..